Location: downtown San Diego
(32.7310°N, 117.1990°W)
Time: 17:28:34
(UTC-07:00)

Envisat - Pass Details

Date: 19 May 2017
Orbit: 764 x 766 km, 98.2° (Epoch: 25 July)

Event Time Altitude Azimuth Distance (km) Brightness Sun altitude
Exits shadow 20:17:40 - 139° (SE) 2,561 5.1 -7.2°
Reaches altitude 10° 20:18:24 10° 136° (SE) 2,295 4.9 -7.3°
Maximum altitude 20:22:57 35° 72° (ENE) 1,223 3.8 -8.1°
Drops below altitude 10° 20:27:32 10° 7° (N) 2,307 5.8 -9.0°
Sets 20:30:00 0° 359° (N) 3,237 6.7 -9.4°
